Regional Weather Roundup
Issued by NWS

Home | Current Version | Previous Version | Graphics & Text | Print | Product List | Glossary On
Versions: 1 2 3 4 5 6 7 8 9 10 11 12 13 14 15 16 17 18 19 20 21 22 23 24 25 26 27 28 29 30 31 32 33 34 35 36 37 38 39 40 41 42 43 44 45 46 47 48 49 50
000
ASUS43 KMPX 291501
RWRMN
WEATHER ROUNDUP FOR MINNESOTA
NATIONAL WEATHER SERVICE TWIN CITIES/CHANHASSEN MN
1000 AM CDT SUN MAY 29 2016


NOTE: "FAIR" INDICATES FEW OR NO CLOUDS BELOW 12,000 FEET WITH NO
SIGNIFICANT WEATHER AND/OR OBSTRUCTIONS TO VISIBILITY. N/A MEANS
CURRENT SKY AND/OR WEATHER CONDITIONS ARE NOT AVAILABLE.

MNZ060>063-068>070-291600-
   Twin Cities Metro

CITY           SKY/WX    TMP DP  RH WIND       PRES   REMARKS
TWIN CITIES    PTSUNNY   68  58  70 W12       29.93R
ST PAUL        PTSUNNY   66  58  75 W18       29.93R
CRYSTAL        CLOUDY    67  57  70 W14       29.92R
BLAINE         CLOUDY    66  63  88 W12       29.92R
EDEN PRAIRIE   PTSUNNY   68  58  70 W12       29.93R
SOUTH ST PAUL  PTSUNNY   67  59  76 W9        29.92S
LAKE ELMO      CLOUDY    64  61  88 W7        29.93R
$$
MNZ001>005-007-008-013>017-022>024-027-028-291600-
   Northwest Minnesota

CITY           SKY/WX    TMP DP  RH WIND       PRES   REMARKS
BEMIDJI        CLOUDY    57  55  91 W13       29.90S
HALLOCK        CLOUDY    61  55  82 NW8       29.92S
ROSEAU         CLOUDY    55  52  88 NW8       29.89S
WARROAD        CLOUDY    57  54  88 W8        29.89R
THIEF RVR FALL CLOUDY    57  52  82 NW13      29.94R
CROOKSTON      CLOUDY    61  55  82 N12       29.94R
FOSSTON        CLOUDY    57  55  94 NW12      29.93S
DETROIT LAKES  CLOUDY    61  59  94 NW7       29.95R
PARK RAPIDS    CLOUDY    62  56  80 NW14      29.92R
MAHNOMEN       CLOUDY    60  57  91 NW12      29.92S
$$
MNZ006-009>011-018-025>026-291600-
   North Central Minnesota

CITY           SKY/WX    TMP DP  RH WIND       PRES   REMARKS
BAUDETTE       CLOUDY    57  54  89 NW12      29.86S
FLAG ISLAND    CLOUDY    55  52  88 NW13      29.85R
INTL FALLS     LGT RAIN  56  54  93 NW10      29.83R FOG
WASKISH        CLOUDY    57  55  94 W12       29.88R
BIG FORK       DRIZZLE   57  55  94 W7        29.86S
LONGVILLE      CLOUDY    61  55  82 W10       29.90R
GRAND RAPIDS   CLOUDY    60  54  80 W16       29.88R
CRANE LAKE     DRIZZLE   55  55 100 CALM      29.82S
ORR            LGT RAIN  57  54  88 NW9       29.80S
COOK           CLOUDY    57  55  94 W10       29.83S
WALKER         CLOUDY    59  55  84 W10G18    29.90S
$$
MNZ012-019>021-037-291600-
   Northeast Minnesota

CITY           SKY/WX    TMP DP  RH WIND       PRES   REMARKS
DULUTH         CLOUDY    62  57  83 NW13G22   29.83R
ELY            CLOUDY    57  55  94 W9G18     29.79S FOG
HIBBING        CLOUDY    58  54  86 NW12      29.84S
EVELETH        CLOUDY    57  54  88 W14       29.85R FOG
DULUTH HARBOR  CLOUDY    63  59  88 W13       29.83R
TWO HARBORS    PTSUNNY   64  61  88 W9        29.78S HAZE
SILVER BAY     CLOUDY    63  61  94 CALM      29.77S
GRAND MARAIS     N/A     43  42  97 W3        29.77F
G MARAIS ARPRT CLOUDY    57  55  94 SW3       29.78S
$$
MNZ029>031-032-039>041-046>048-054>057-064-291600-
   West Central Minnesota

CITY           SKY/WX    TMP DP  RH WIND       PRES   REMARKS
FERGUS FALLS   PTSUNNY   64  61  88 NW12      29.92S
WHEATON        SUNNY     70  61  73 W8        29.98S
MORRIS         MOSUNNY   64  61  88 NW9       29.96R
ALEXANDRIA     PTSUNNY   64  57  78 NW12      29.96S
ELBOW LAKE     PTSUNNY   64  59  86 NW10      29.96S
WADENA         CLOUDY    61  57  88 W7        29.93S
GLENWOOD       MOSUNNY   64  59  82 NW13      29.97R
APPLETON       MOSUNNY   68  59  73 W7        29.96S
ORTONVILLE     SUNNY     68  57  68 NW6       29.97S
MADISON        SUNNY     70  57  64 NW12G17   29.98R
WILLMAR        FAIR      66  61  82 NW12      29.98S
$$
MNZ033>034-036-042>043-049>051-058-059-291600-
   Central Minnesota

CITY           SKY/WX    TMP DP  RH WIND       PRES   REMARKS
ST CLOUD       CLOUDY    66  59  78 NW15      29.93R
SAUK CENTRE    PTSUNNY   65  57  76 NW10G16   29.95S
PAYNESVILLE    CLOUDY    66  60  80 W12       29.96R
AITKIN         CLOUDY    64  54  68 NW6       29.88R
PINE RIVER     CLOUDY    61  55  82 W7        29.94R
BRAINERD       CLOUDY    62  56  80 W9        29.92R
STAPLES        CLOUDY    63  55  77 NW12      29.93R
LONG PRAIRIE   CLOUDY    63  55  77 W9        29.95S
LITTLE FALLS   CLOUDY    63  54  72 NW7G17    29.93S
LITCHFIELD     SUNNY     68  63  83 W10       29.96R
BUFFALO        PTSUNNY   65  58  75 W12       29.95R
MAPLE LAKE     MOSUNNY   67  60  80 W10G20    29.95R
HUTCHINSON     MOSUNNY   67  62  81 W12       29.97S
$$
MNZ037-044-045-052-053-291600-
   East Central Minnesota

CITY           SKY/WX    TMP DP  RH WIND       PRES   REMARKS
PRINCETON      CLOUDY    66  61  82 W13G20    29.92R
MORA           CLOUDY    63  55  77 NW14      29.91R
CAMBRIDGE      CLOUDY    66  55  68 W8G18     29.90R
RUSH CITY      CLOUDY    63  58  82 W8        29.90R
MOOSE LAKE     CLOUDY    63  55  77 NW6       29.85R
HINCKLEY       CLOUDY    63  59  88 W9        29.88S
CLOQUET        CLOUDY    61  55  82 W7        29.85R
MCGREGOR       CLOUDY    61  55  82 NW12      29.89R
$$
MNZ071>073-080-081-089-090-097-098-291600-
   Southwest Minnesota

CITY           SKY/WX    TMP DP  RH WIND       PRES   REMARKS
MONTEVIDEO     SUNNY     70  59  68 NW8       29.99R
GRANITE FALLS  SUNNY     70  61  74 W10       29.99S
CANBY          SUNNY     72  59  64 NW15      30.00R
REDWOOD FALLS  SUNNY     69  58  67 W14       29.97R
OLIVIA         SUNNY     70  63  78 NW9       29.97R
PIPESTONE      SUNNY     66  55  68 NW12      30.03S
WINDOM         SUNNY     70  59  68 W16       30.01R
WORTHINGTON    SUNNY     68  60  75 W17       30.03S
JACKSON        SUNNY     68  59  73 W13G18    30.02S
TRACY          SUNNY     71  60  68 NW9       30.00R
SLAYTON        SUNNY     67  58  72 W15G21    30.03R
$$
MNZ065>067-074>077-082>085-091>093-291600-
   South Central Minnesota

CITY           SKY/WX    TMP DP  RH WIND       PRES   REMARKS
MANKATO        SUNNY     68  57  68 W14       29.98S
NEW ULM        SUNNY     68  61  77 W15       29.98R
ST JAMES       MOSUNNY   64  55  72 W15       30.00R
FAIRMONT       SUNNY     70  59  68 W18       30.00S
GLENCOE        MOSUNNY   68  63  83 W8        29.95S
FARIBAULT      MOSUNNY   70  61  73 W9G17     29.97R
OWATONNA       MOSUNNY   68  61  77 W16       29.98S
WASECA         MOSUNNY   68  61  77 W14       30.00R
ALBERT LEA     SUNNY     68  61  77 W7        30.00R
$$
MNZ078>079-086>088-094>096-291600-
   Southeast Minnesota

CITY           SKY/WX    TMP DP  RH WIND       PRES   REMARKS
ROCHESTER      PTSUNNY   67  61  81 W16       29.97S
RED WING       CLOUDY    66  61  82 W13       29.92S
STANTON        MOSUNNY   69  60  73 W15       29.94S
DODGE CENTER   MOSUNNY   68  61  77 W18       29.98R
WINONA         CLOUDY    70  61  73 W7        29.94S
AUSTIN         SUNNY     68  57  68 NW12G18   29.99S
PRESTON        PTSUNNY   66  58  74 W15G21    29.99S
$$
ABBREVIATIONS USED IN REMARKS
   TC - TEMPERATURES IN CELSIUS
  WCI - WIND CHILL INDEX
   HX - HEAT INDEX
  VSB - VISIBILITY
$$




USA.gov is the U.S. government's official web portal to all federal, state and local government web resources and services.